TIME,DELAY(SENSOR),PRES,OXYGEN,RAWTEMP,T(OPTODE),TCPHASE,FLUOR,BETA(BETA700),BETA(BETA412),BETA(BETA440),CDOM,C(CSC),ED(ED412.40),ED(ED444.00),ED(ED489.70),ED(ED554.30),LU(LU411.80),LU(LU443.40),LU(LU489.60),LU(LU554.10),COMP,TILTX,TILTY,CHECK
1337226593,5807,868.4199829101562000,41.7913208007812500,659.9240112304688000,4.6304759979248050,54.7266197204589840,54,102,89,79,82,15315,2147758070,2147421248,2148004059,2147875657,2147641910,2147058038,2148262646,2147198363,2266,4,14,43660
1337230189,5807,954.7299804687500000,45.7160606384277340,669.8764038085938000,4.3022799491882320,54.2698211669921900,53,102,91,79,82,15316,2147759826,2147421092,2148004900,2147875529,2147645229,2147059556,2148261193,2147200347,2576,4,14,16487
1337233789,5807,976.5800170898438000,47.5228881835937500,672.5645751953125000,4.2134418487548830,54.0480995178222660,53,99,92,79,83,15317,2147759881,2147423268,2148005056,2147875090,2147644324,2147057216,2148262957,2147202578,3584,4,14,41630
1337237389,5807,989.3800048828125000,47.7794189453125000,673.0288696289062000,4.1980900764465330,54.0172882080078100,53,98,89,80,83,15318,2147760621,2147421769,2148006784,2147874697,2147642880,2147058532,2148265344,2147204498,288,4,13,34607
1337240989,5808,995.3400268554688000,47.1503982543945300,672.6099243164062000,4.2119460105896000,54.1050186157226560,53,102,90,80,83,15316,2147757540,2147423808,2148005632,2147876425,2147644736,2147059401,2148260982,2147199744,3490,4,13,45895
1337244589,5808,996.3599853515625000,46.8846092224121100,672.6494140625000000,4.2106399536132810,54.1407203674316400,53,99,86,80,84,15315,2147755940,2147422217,2148002550,2147878710,2147646070,2147064740,2148259702,2147201709,3120,4,13,31720
1337248189,5809,1002.6699829101562000,46.5509796142578100,672.1204833984375000,4.2281250953674320,54.1757392883300800,52,101,85,80,82,15316,2147759442,2147421924,2148002806,2147874441,2147641453,2147063396,2148263744,2147200502,281,4,13,40330
1337251789,5807,1000.5300292968750000,46.4308891296386700,671.8073730468750000,4.2384738922119140,54.1947212219238300,52,101,91,79,82,15316,2147758107,2147423488,2148005156,2147874907,2147642203,2147052955,2148259958,2147201188,3541,4,13,11257
1337255389,5809,1007.4600219726562000,46.2768592834472660,671.8021240234375000,4.2386488914489750,54.2125511169433600,52,103,88,78,83,15316,2147757412,2147422601,2148006994,2147878125,2147646153,2147060425,2148269257,2147199424,207,4,13,5793
1337258989,5811,1001.2299804687500000,46.2243499755859400,671.8743286132812000,4.2362608909606930,54.2202491760253900,52,101,86,80,83,15316,2147758445,2147420745,2148006043,2147876205,2147645824,2147054427,2148261458,2147202331,3388,4,14,435
1337262589,5808,998.2500000000000000,46.4537200927734400,672.9550170898438000,4.2005329132080080,54.2033081054687500,53,98,87,78,84,15311,2147760832,2147424484,2148004452,2147876736,2147645348,2147058715,2148261979,2147198198,391,4,13,55719
1337266189,5809,999.3900146484375000,46.4463615417480500,672.9168090820312000,4.2017960548400880,54.2073898315429700,53,99,90,79,84,15312,2147758208,2147423332,2148002742,2147876544,2147644763,2147058770,2148260973,2147202413,366,4,13,37035
1337269789,5809,1002.2999877929688000,46.4422302246093750,673.0291137695312000,4.1980838775634770,54.2043495178222660,52,105,88,81,83,15312,2147759204,2147422235,2148005650,2147878189,2147643346,2147063570,2148259712,2147200960,566,4,13,37459
1337273389,5808,998.8300170898438000,46.7609214782714840,673.8457031250000000,4.1710758209228520,54.1732902526855500,52,99,89,80,84,15308,2147759104,2147422976,2148003977,2147876288,2147644745,2147058852,2148259556,2147198930,281,4,13,53438
1337276989,5812,1001.7899780273438000,46.9273185729980500,673.9334716796875000,4.1681709289550780,54.1505012512207000,52,98,89,78,83,15310,2147759515,2147424612,2148005266,2147877659,2147644662,2147060141,2148260278,2147202358,293,5,13,5390
1337280589,5810,1009.9000244140625000,46.7019691467285160,673.5687866210938000,4.1802349090576170,54.1728706359863300,52,104,88,79,82,15316,2147758016,2147419894,2148003757,2147878043,2147645467,2147060004,2148258358,2147201462,38,4,13,36873
1337284189,5810,1015.6300048828125000,46.7161598205566400,673.0925292968750000,4.1959881782531740,54.1682510375976560,52,99,88,79,83,15315,2147761325,2147422637,2148006034,2147876589,2147646372,2147057344,2148264594,2147197577,3267,4,13,47068
1337287789,5811,1017.8599853515625000,46.0936393737793000,672.0667114257812000,4.2299017906188965,54.2427597045898440,53,99,87,79,83,15314,2147759241,2147421632,2148005211,2147874532,2147643693,2147062162,2148260900,2147200420,224,4,13,24244
1337291389,5811,1013.9400024414062000,45.6398506164550800,672.1425170898438000,4.2273960113525390,54.3141593933105500,52,102,89,79,83,15308,2147758180,2147424612,2148003136,2147877549,2147646637,2147061293,2148256548,2147202038,24,4,13,59863
1337294989,5809,1008.3400268554688000,46.6823310852050800,673.6141967773438000,4.1787338256835940,54.1783409118652340,53,98,90,78,84,15314,2147759926,2147423122,2148003410,2147876260,2147642422,2147060736,2148263936,2147200429,3539,4,13,10251
1337298589,5810,1014.1799926757812000,46.7162208557128900,673.1926269531250000,4.1926770210266110,54.1678390502929700,52,98,87,79,83,15309,2147758208,2147421778,2148001005,2147875510,2147642569,2147057828,2148264009,2147199926,29,4,13,64512
1337302189,5810,1012.6599731445312000,46.6388397216796900,673.2166748046875000,4.1918787956237790,54.1784591674804700,52,102,92,79,84,15308,2147758948,2147422034,2148003364,2147873371,2147643392,2147059392,2148263616,2147198555,182,4,13,42648
1337305789,5811,1008.0800170898438000,46.2875785827636700,673.1517944335938000,4.1940250396728520,54.2322807312011700,53,100,92,79,83,15310,2147758235,2147422473,2148002678,2147875428,2147641636,2147062390,2148265243,2147202706,3292,4,13,11816
1337309389,5807,1012.2899780273438000,46.2713394165039060,673.1458129882812000,4.1942229270935060,54.2334518432617200,52,99,90,80,84,15216,2147759698,2147422692,2148002313,2147874377,2147644708,2147062464,2148260608,2147199926,363,4,13,28804
1337312989,5807,1006.9299926757812000,46.6054496765136700,673.5933837890625000,4.1794199943542480,54.1928291320800800,52,100,85,80,84,15215,2147758637,2147422180,2148005010,2147877988,2147644059,2147062656,2148263049,2147202413,555,4,13,1830
1337316589,5809,1002.3699951171875000,46.5732994079589840,674.6890258789062000,4.1431789398193360,54.2079200744628900,53,98,89,78,83,15216,2147760155,2147424722,2148000621,2147875849,2147643099,2147055332,2148259584,2147200310,12,4,13,9526
1337320189,5809,1000.0800170898438000,47.1668510437011700,675.9375000000000000,4.1018600463867190,54.1381187438964840,53,99,90,79,85,15213,2147761417,2147418825,2148001298,2147875766,2147645147,2147059648,2148264173,2147204150,171,4,13,26082
1337323789,5811,1003.0900268554688000,46.8855400085449200,676.5167846679688000,4.0826802253723145,54.1852493286132800,51,99,91,79,83,15212,2147762194,2147420580,2148007177,2147874038,2147643437,2147058304,2148264384,2147204242,899,4,14,53697
1337327389,5805,1011.4099731445312000,46.9271507263183600,675.2059936523438000,4.1260700225830080,54.1629791259765600,52,99,90,80,83,15214,2147760009,2147424521,2148006957,2147872877,2147643584,2147056850,2148259666,2147201033,969,4,13,25594
1337330989,5809,1020.4799804687500000,46.4489097595214840,672.9500732421875000,4.2006969451904300,54.2055091857910160,53,99,90,80,84,15212,2147758976,2147423570,2148005988,2147875602,2147642660,2147064192,2148261549,2147200182,3445,4,13,4307
1337334589,5809,1014.2399902343750000,45.9935302734375000,672.6491088867188000,4.2106480598449710,54.2652816772460940,52,99,88,78,83,15212,2147760493,2147421129,2148004918,2147876141,2147644105,2147060260,2148265344,2147198290,133,4,13,27
1337338189,5811,1017.3599853515625000,46.0079002380371100,672.8170166015625000,4.2050948143005370,54.2658882141113300,54,103,91,78,83,15213,2147758665,2147421842,2148006272,2147874249,2147641691,2147060818,2148263570,2147200996,3531,4,13,31276
1337341789,5811,1008.2899780273438000,46.3200798034668000,673.7307739257812000,4.1748771667480470,54.2303390502929700,52,100,88,80,84,15213,2147757211,2147423881,2148005595,2147876544,2147643858,2147055131,2148265097,2147203446,80,4,13,59987
1337345389,5810,1013.3800048828125000,46.4762611389160160,674.1818847656250000,4.1599521636962890,54.2160682678222660,52,98,88,79,82,15211,2147756260,2147421531,2148004909,2147873636,2147645129,2147063030,2148260388,2147202852,3366,4,13,26504
1337348989,5810,1008.9500122070312000,46.8245887756347660,674.9470825195312000,4.1346359252929690,54.1787681579589840,53,100,87,80,84,15210,2147759003,2147421403,2148003410,2147878244,2147645458,2147061330,2148262848,2147200557,672,4,13,28899
1337352589,5808,1020.9099731445312000,46.9704704284668000,673.8154296875000000,4.1720771789550780,54.1420402526855500,52,100,88,79,83,15213,2147761700,2147420589,2148004598,2147877156,2147643894,2147062006,2148262573,2147200777,3123,4,13,62280
1337356189,5805,1015.5499877929688000,46.5057907104492200,674.4514160156250000,4.1510391235351560,54.2175407409668000,53,98,88,79,84,15214,2147761133,2147422345,2148002267,2147873581,2147645741,2147063341,2148262107,2147199762,102,4,13,58361
1337359789,5807,1015.8099975585938000,46.7615890502929700,673.5629882812500000,4.1804280281066895,54.1683998107910160,53,120,89,80,84,15214,2147762285,2147418541,2148004233,2147871972,2147643812,2147056429,2148262299,2147201444,311,4,13,22023
1337363389,5810,1010.5000000000000000,46.7763099670410160,674.5222778320312000,4.1486911773681640,54.1805305480957000,53,100,88,79,83,15210,2147759497,2147418816,2148004717,2147873874,2147645659,2147062144,2148264841,2147198884,350,4,13,43527
1337366989,5809,1026.0200195312500000,46.8794898986816400,673.4711914062500000,4.1834621429443360,54.1529502868652340,53,101,87,78,84,15213,2147757357,2147423798,2148004370,2147872292,2147643136,2147063003,2148262299,2147200630,354,4,13,30394
1337370589,5812,1019.1400146484375000,46.1316604614257800,673.1437988281250000,4.1942901611328125,54.2558097839355500,53,97,92,81,84,15211,2147759698,2147423433,2148005019,2147875940,2147640914,2147063076,2148262016,2147200000,89,4,13,55284
1337370678,5809,1018.7299804687500000,46.0486106872558600,673.0637817382812000,4.1969342231750490,54.2621116638183600,53,98,88,78,83,15336,2147758674,2147421659,2148005156,2147872448,2147645485,2147068004,2148259794,2147204681,128,4,13,54656
